Hourly Data Report for October 03, 2017

All times are specified in Local Standard Time (LST). Add 1 hour to adjust for Daylight Saving Time where and when it is observed.

HOPE A
BRITISH COLUMBIA

49°22'06.000" N
121°29'53.000" W
39.00 m
1113542
71187
YHE

Download Data

Hourly Data (October 2017)
Hourly Data Report for October 3, 2017
Temp Definition
°C
Dew Point Temp Definition
°C
Rel Hum Definition
%
Wind Dir Definition
10's deg

Wind Spd Definition
km/h
Visibility Definition
km
Stn Press Definition
kPa
Hmdx Definition


Wind Chill Definition


Weather Definition


TIME
00:00 Legend Double Dagger 10.9 1.8 53 9 17 16.1 102.29     LegendNANA
01:00 Legend Double Dagger 10.0 2.2 58 6 8 16.1 102.34     LegendNANA
02:00 Legend Double Dagger 9.4 2.3 61 6 8 16.1 102.36     LegendNANA
03:00 Legend Double Dagger 9.1 2.3 62 7 9 16.1 102.40     LegendNANA
04:00 Legend Double Dagger 8.6 2.0 63 7 11 16.1 102.43     LegendNANA
05:00 Legend Double Dagger 8.7 1.7 61 7 11 16.1 102.44     LegendNANA
06:00 Legend Double Dagger 8.1 1.7 64 6 11 16.1 102.45     LegendNANA
07:00 Legend Double Dagger 7.9 1.4 63 7 11 16.1 102.46     LegendNANA
08:00 Legend Double Dagger 8.3 1.1 60 9 9 16.1 102.53     LegendNANA
09:00 Legend Double Dagger 12.1 0.2 44 11 21 16.1 102.48     LegendNANA
10:00 Legend Double Dagger 13.9 -1.0 36 14 13 16.1 102.44     LegendNANA
11:00 Legend Double Dagger 15.6 -1.0 32 15 17 16.1 102.31     LegendNANA
12:00 Legend Double Dagger 17.2 -2.1 27 15 11 16.1 102.18     LegendNANA
13:00 Legend Double Dagger 18.9 -0.7 26 13 9 16.1 102.05     LegendNANA
14:00 Legend Double Dagger 20.1 -1.5 23 16 8 16.1 101.99     LegendNANA
15:00 Legend Double Dagger 20.7 -1.8 22 16 8 12.9 101.89     LegendNANA
16:00 Legend Double Dagger 16.4 3.1 41 26 4 16.1 101.84     LegendNANA
17:00 Legend Double Dagger 13.5 4.3 53   0 16.1 101.85     LegendNANA
18:00 Legend Double Dagger 11.3 4.3 62   0 16.1 101.88     LegendNANA
19:00 Legend Double Dagger 13.2 3.9 53 9 11 16.1 101.95     LegendNANA
20:00 Legend Double Dagger 12.6 3.5 54 8 13 16.1 101.99     LegendNANA
21:00 Legend Double Dagger 11.9 3.5 56 7 11 16.1 102.03     LegendNANA
22:00 Legend Double Dagger 11.4 2.5 54 7 9 16.1 102.07     LegendNANA
23:00 Legend Double Dagger 11.3 1.1 49 8 15 16.1 102.06     LegendNANA

Notes on Data Quality.

Legend

  • E = Estimated
  • M = Missing
  • NA = Not Available
  • ‡ = Partner data that is not subject to review by the National Climate Archives
Date modified: